Phoenix Deer Valley, AZ

12:38 AM MST on September 21, 2019 (GMT -0700)
Phoenix-Deer Valley Municipal

Weather History for KDVT - July, 2019

Change the Weather History Date:

Wednesday, July 24, 2019

  Actual Average Record
Temperature  
Mean Temperature 88 °F -  
Max Temperature 99 °F 101 °F 113 °F (2018)
Min Temperature 78 °F 81 °F 75 °F (2011)
Cooling Degree Days 24    
Growing Degree Days 38 (Base 50)    
Moisture  
Dew Point 64 °F    
Average Humidity 41    
Maximum Humidity 76    
Minimum Humidity 28    
Precipitation  
Precipitation 0.00 in - - ()
Sea Level Pressure  
Sea Level Pressure 29.94 in    
Wind  
Wind Speed 7 mph (West)    
Max Wind Speed 13 mph    
Max Gust Speed 18 mph    
Visibility 10 miles    
Events Thunderstorm    
Averages and records for this station are not official NWS values.
T = Trace of Precipitation, MM = Missing Value Source: NWS Daily Summary

Daily Weather History Graph

Daily Weather History Graph

Search for Another Location

Airport or City:

Astronomy

Jul. 24, 2019 Rise Set
Actual Time 5:34 AM MST 7:34 PM MST
Civil Twilight 5:06 AM MST 8:02 PM MST
Nautical Twilight 4:33 AM MST 8:36 PM MST
Astronomical Twilight 3:56 AM MST 9:12 PM MST
Moon No Moon Rise 12:29 PM MST (7/24)
Length of Visible Light 14h 55m
Length of Day
13h 59m
Waning Gibbous, 53% of the Moon is Illuminated
Jul 24
Waning Gibbous
Jul 24
Last Quarter
Jul 31
New
Aug 7
First Quarter
Aug 15
Full

Hourly Weather History & Observations

Time (MST) Temp. Heat Index Dew Point Humidity Pressure Visibility Wind Dir Wind Speed Gust Speed Precip Events Conditions
12:53 AM 93.0 °F 92.7 °F 60.1 °F 33% 29.84 in 10.0 mi SE 4.6 mph - N/A   Clear
1:53 AM - - - N/A% 29.94 in - North - - N/A   Unknown
2:53 AM - - - N/A% 29.94 in - North - - N/A   Unknown
3:53 AM - - - N/A% 29.96 in - North - - N/A   Unknown
4:16 AM - - - N/A% 29.98 in - North - - N/A Thunderstorm Unknown
4:31 AM - - - N/A% 29.99 in - North - - N/A   Unknown
4:53 AM - - - N/A% 30.01 in - North - - N/A   Unknown
5:30 AM - - - N/A% 30.04 in - North - - N/A Thunderstorm Thunderstorm
5:53 AM - - - N/A% 30.06 in - North - - N/A   Unknown
6:00 AM - - - N/A% 30.07 in - North - - N/A Thunderstorm Unknown
6:09 AM - - - N/A% 30.07 in - North - - N/A Thunderstorm Thunderstorm
6:43 AM - - - N/A% 30.08 in - North - - N/A Thunderstorm Unknown
6:53 AM - - - N/A% 30.08 in - North - - N/A   Unknown
7:53 AM 78.1 °F - 69.1 °F 74% 29.99 in 10.0 mi NNE 10.4 mph - N/A   Unknown
8:53 AM 80.1 °F 83.8 °F 72.0 °F 76% 29.99 in 10.0 mi NNE 6.9 mph - N/A   Clear
9:53 AM 84.9 °F 88.8 °F 69.1 °F 59% 29.98 in 10.0 mi Calm Calm - N/A   Clear
10:53 AM 89.1 °F 92.1 °F 66.9 °F 48% 29.96 in 10.0 mi WNW 5.8 mph - N/A   Clear
11:53 AM 91.9 °F 95.9 °F 68.0 °F 45% 29.93 in 10.0 mi WNW 9.2 mph - N/A   Clear
12:53 PM 93.0 °F 95.0 °F 64.9 °F 39% 29.90 in 10.0 mi Variable 4.6 mph - N/A   Clear
1:53 PM 98.1 °F 101.2 °F 64.9 °F 34% 29.94 in 10.0 mi North - - N/A   Clear
2:53 PM 97.0 °F 99.3 °F 64.0 °F 34% 29.91 in 10.0 mi WNW 5.8 mph 18.4 mph N/A   Clear
3:53 PM 99.0 °F 100.5 °F 63.0 °F 30% 29.89 in 10.0 mi West 10.4 mph - N/A   Clear
4:53 PM 98.1 °F 99.1 °F 62.1 °F 30% 29.87 in 10.0 mi West 10.4 mph - N/A   Clear
5:53 PM 98.1 °F 98.1 °F 60.1 °F 28% 29.85 in 10.0 mi WSW 12.7 mph - N/A   Clear
6:53 PM 97.0 °F 96.5 °F 59.0 °F 28% 29.87 in 10.0 mi West 10.4 mph - N/A   Clear
7:53 PM 96.1 °F 95.6 °F 59.0 °F 29% 29.81 in 10.0 mi West 10.4 mph - N/A   Clear
8:53 PM 93.9 °F 95.6 °F 64.0 °F 37% 29.82 in 10.0 mi SW 5.8 mph - N/A   Clear
9:53 PM 93.0 °F 94.2 °F 63.0 °F 37% 29.84 in 10.0 mi SW 5.8 mph - N/A   Clear
10:53 PM 91.9 °F 92.9 °F 63.0 °F 38% 29.84 in 10.0 mi WSW 9.2 mph - N/A   Clear
11:53 PM 90.0 °F 91.3 °F 64.0 °F 42% 29.83 in 10.0 mi Calm Calm - N/A   Clear